Location: ???????????
(38.2661°N, 23.2350°E)
Time: 01:23:47
(UTC+00:00)

COSMO-SKYMED 1 - Pass Details

Date: 25 September 2023
Orbit: 621 x 623 km, 97.9° (Epoch: 08 December)

Event Time Altitude Azimuth Distance (km) Brightness Sun altitude
Rises 16:52:08 0° 6° (N) 2,914 6.0 -7.1°
Reaches altitude 10° 16:54:22 10° 2° (N) 2,003 5.2 -7.6°
Maximum altitude 16:58:36 52° 286° (WNW) 781 3.6 -8.4°
Drops below altitude 10° 17:02:48 10° 210° (SSW) 1,989 5.5 -9.2°
Sets 17:05:01 0° 206° (SSW) 2,891 6.3 -9.7°
